GW2951 Weather Reports


Display with metric or nautical units.
time (UTC)temp
F
wind
direction
speed
MPH
gust
MPH
rain 1hr
in
rain 24hr
in
rain mn
in
humidity
%
barometer
mb
20260504174555 78 88 11.0 14.0 0.00 3.16 1.34 83 1014.1
20260504173054 77 90 9.0 12.0 0.00 3.16 1.34 84 1014.3
20260504171558 77 84 9.0 12.0 0.00 3.16 1.34 84 1014.3
20260504090107 74 63 3.0 9.0 0.00 3.16 1.34 91 1012.5
20260504081555 73 36 5.0 9.0 0.33 3.16 1.34 92 1012.3
20260504044605 76 240 2.0 9.0 0.04 1.90 0.04 89 1014.6
20260504043054 76 244 5.0 11.0 0.00 1.86 0.00 88 1014.5
20260504041553 75 252 6.0 11.0 0.00 1.86 0.00 88 1014.3
20260504040110 75 227 5.0 10.0 0.00 1.86 0.00 88 1014.3
20260504034600 76 245 7.0 14.0 0.02 1.91 1.86 89 1014.1
20260504033055 75 229 6.0 11.0 0.02 1.91 1.86 89 1014.0
20260504031552 75 245 7.0 14.0 0.02 1.91 1.86 88 1014.3
20260504030052 76 261 7.0 14.0 0.02 1.91 1.86 87 1014.3
20260504024550 75 215 6.0 11.0 0.00 1.89 1.84 86 1015.0
20260504023053 76 201 5.0 15.0 0.00 1.89 1.84 87 1014.7
20260504021553 75 207 4.0 16.0 0.00 1.89 1.84 87 1014.8
20260504020052 75 152 7.0 18.0 0.00 1.89 1.84 87 1014.7
20260504014555 78 217 8.0 17.0 0.00 1.89 1.84 86 1014.4
20260504013103 78 206 2.0 8.0 0.00 1.89 1.84 85 1014.3
20260504011553 78 239 2.0 4.0 0.00 1.89 1.84 84 1014.2
20260504010101 78 0 0.0 3.0 0.00 1.89 1.84 85 1013.8
20260504004606 78 126 1.0 6.0 0.00 1.89 1.84 85 1013.8
20260504003055 78 132 3.0 7.0 0.00 1.89 1.84 87 1013.7
20260504001555 78 0 1.0 5.0 0.00 1.89 1.84 86 1013.6
20260504000132 77 154 1.0 5.0 0.00 1.89 1.84 85 1013.3
20260503234554 77 0 0.0 5.0 0.00 1.89 1.84 86 1013.2
20260503233055 77 138 1.0 4.0 0.00 1.89 1.84 85 1012.9
20260503231558 77 169 1.0 5.0 0.00 1.89 1.84 85 1012.7
20260503224555 77 200 1.0 6.0 0.00 1.89 1.84 86 1013.1
20260503223054 77 123 2.0 4.0 0.00 1.89 1.84 86 1012.6
20260503221559 76 117 2.0 6.0 0.00 1.89 1.84 87 1012.6
20260503220118 75 148 1.0 3.0 0.00 1.89 1.84 88 1012.5
20260503214558 75 84 2.0 6.0 0.00 1.89 1.84 89 1012.9
20260503213103 75 87 1.0 4.0 0.00 1.89 1.84 90 1012.7
20260503211559 74 132 1.0 4.0 0.01 1.89 1.84 90 1012.8
20260503210059 74 150 2.0 5.0 0.17 1.89 1.84 91 1013.1
20260503204605 73 113 3.0 9.0 0.30 1.89 1.84 91 1013.7
20260503203059 73 36 5.0 11.0 0.36 1.89 1.84 91 1014.1
20260503201555 72 86 2.0 7.0 0.77 1.88 1.83 90 1013.7
20260503200101 73 101 1.0 4.0 1.03 1.72 1.67 90 1014.3
20260503194556 73 0 0.0 4.0 0.90 1.59 1.54 90 1014.5
20260503193100 73 156 1.0 4.0 0.84 1.53 1.48 89 1014.6
20260503191553 75 261 4.0 17.0 0.51 1.10 1.04 89 1015.4
20260503190054 77 242 1.0 7.0 0.60 0.69 0.64 89 1014.5
20260503184603 77 105 2.0 10.0 0.60 0.69 0.64 89 1014.7
20260503183056 77 88 6.0 10.0 0.60 0.69 0.64 89 1015.0
20260503181556 78 107 4.0 15.0 0.48 0.57 0.52 86 1014.6
20260503180106 80 49 12.0 16.0 0.00 0.09 0.04 83 1014.6